Hourly Weather Roundup
Issued by NWS Central Illinois

Home | Current Version | Previous Version | Text Only | Print | Product List | Glossary On
Versions: 1 2 3 4 5 6 7 8 9 10 11 12 13 14 15 16 17 18 19 20 21 22 23 24 25 26 27 28 29 30 31 32 33 34 35 36 37 38 39 40 41 42 43 44 45 46 47 48 49 50
000
NZUS43 KILX 061010
HWRILX

AREA WEATHER ROUNDUP
NATIONAL WEATHER SERVICE, LINCOLN IL
400 AM CST SAT FEB 06 2016


CITY           SKY/WX    TMP DP  RH WIND       PRES   REMARKS
BLOOMINGTON    MOCLDY    24  23  96 S7        30.30S WCI  16
CHAMPAIGN      CLEAR     24  21  88 S8        30.32R WCI  15
DANVILLE       CLEAR     22  20  93 S3        30.30R
DECATUR        CLOUDY    28  23  81 S5        30.31F WCI  23
EFFINGHAM      CLOUDY    28  27  99 E3        30.35S
FLORA          CLOUDY    28  24  86 CALM      30.35S
GALESBURG      CLOUDY    28  24  86 S5        30.26F WCI  22
JACKSONVILLE   MOCLDY    32  26  77 S3        30.30F
LACON          CLOUDY    27  23  86 S3        30.28F
LAWRENCEVILLE  CLOUDY    23  21  92 CALM      30.35F FOG
LITCHFIELD     CLOUDY    29  24  81 SE5       30.31S WCI  24
$$


CITY           SKY/WX    TMP DP  RH WIND       PRES   REMARKS
LINCOLN        CLOUDY    28  27  94 S3        30.31S
MACOMB         MOCLDY    28  24  84 S3        30.30F
MATTOON        CLOUDY    26  22  84 S8        30.31F WCI  18
MT CARMEL AP   CLOUDY    25  21  86 CALM      30.35S
OLNEY-NOBLE AP CLOUDY    27  23  86 CALM      30.35S
PARIS          CLOUDY    24  22  93 CALM      30.34S
PEORIA         CLOUDY    27  23  85 S5        30.30F WCI  22
PONTIAC        PTCLDY    24  22  96 S3        30.30F
RANTOUL        CLEAR     25  24  95 S3        30.31S FOG
ROBINSON       CLOUDY    21  20  94 CALM      30.36F
SPRINGFIELD    CLOUDY    31  26  82 S6        30.32R WCI  25
TAYLORVILLE    CLOUDY    30  27  86 S5        30.32R WCI  25
$$

...REGIONAL REPORTS...


CITY           SKY/WX    TMP DP  RH WIND       PRES   REMARKS
CHICAGO O`HARE CLOUDY    26  22  84 SW6       30.27S WCI  19
KANKAKEE       PTCLDY    21  19  90 S5        30.31S WCI  15
MOLINE         PTCLDY    28  21  75 SW6       30.25F WCI  22
MOUNT STERLING PTCLDY    27  22  82 S5        30.28F WCI  22
MOUNT VERNON   CLOUDY    28  19  69 NE3       30.33S
PITTSFIELD     PTCLDY    28  24  86 CALM      30.30S
QUINCY         MOCLDY    29  19  66 SE3       30.27F
ROCKFORD       CLOUDY    28  22  78 S7        30.27F WCI  21
$$


CITY           SKY/WX    TMP DP  RH WIND       PRES   REMARKS
BURLINGTON     PTCLDY    27  23  85 S5        30.26F WCI  22
CEDAR RAPIDS   CLOUDY    28  25  88 S6        30.23S WCI  22
DES MOINES     CLOUDY    30  26  85 SW5       30.24S WCI  25
KIRKSVILLE     CLEAR     24  17  74 S6        30.25F WCI  17
OTTUMWA        CLEAR     24  20  84 S5        30.24F WCI  18
ST LOUIS       PTCLDY    30  21  69 SE6       30.31S WCI  24
$$


CITY           SKY/WX    TMP DP  RH WIND       PRES   REMARKS
TERRE HAUTE    CLOUDY    22  19  89 CALM      30.34S
EVANSVILLE     CLEAR     28  21  75 NE3       30.35S
INDIANAPOLIS   CLOUDY    22  18  85 SW3       30.32S
LAFAYETTE      CLEAR     18  17  96 CALM      30.33S FOG
MADISON        CLOUDY    27  20  75 MISG      30.20F
MILWAUKEE      CLOUDY    29  21  72 SW9       30.24S WCI  20
$$





USA.gov is the U.S. government's official web portal to all federal, state and local government web resources and services.